Find Qianfan 07-01

NORAD ID: 68636 Int'l Des: 2026-075 Owner: YUANX Country: CN Constellation: qianfan operational
LEOCIRCULARPOLAR

Live Position

Loading 3D Globe...

About Qianfan 07-01

Description loading...

Upcoming Passes

Passes for default location (London). Set your location on the main map for personalized predictions.

Altitude History

Loading altitude history...

Two-Line Element Set

1 68636U 26075A 26110.54339337 .00000132 00000-0 56336-4 0 9999
2 68636 88.9903 327.2217 0014387 170.4584 189.6882 14.19019183 1846
Epoch: Apr 20, 2026 • Age: 12 hours

Current Status

Altitude 840.6 km
Velocity 7.43 km/s
Sub-Earth Point 11.14°N, 104.14°E
Launch Date Apr 7, 2026
Age 14 days
Type internet

Technical Details

Classification Payload
Mass 267.00 kg
Dry Mass 267.00 kg
Total Mass 267.00 kg
Length 0.30 m
Diameter 3.00 m
Span 10.00 m
Shape Box+pan
Manufacturer SECM
Bus Type Qianfan
Phase Status In Orbit
Owner/State YUANX/CN

Most Searched